Hebron, NE

1:23 PM CDT on October 22, 2017 (GMT -0500)
Hebron Municipal

Weather History for KHJH - May, 2013

Change the Weather History Date:

Wednesday, May 1, 2013

  Actual Average Record
Temperature  
Mean Temperature 50 °F -  
Max Temperature 62 °F 67 °F 92 °F (1965)
Min Temperature 34 °F 43 °F 30 °F (1966)
Degree Days  
Heating Degree Days 16    
Moisture  
Dew Point 36 °F    
Average Humidity 78    
Maximum Humidity 91    
Minimum Humidity 31    
Precipitation  
Precipitation 0.74 in - - ()
Sea Level Pressure  
Sea Level Pressure 30.18 in    
Wind  
Wind Speed 19 mph (NNE)    
Max Wind Speed 28 mph    
Max Gust Speed 40 mph    
Visibility 5 miles    
Events Rain , Snow , Thunderstorm    
Averages and records for this station are not official NWS values.
T = Trace of Precipitation, MM = Missing Value Source: NWS Daily Summary

Daily Weather History Graph

Daily Weather History Graph

Search for Another Location

Airport or City:

Trip Planner

Search our weather history database for the weather conditions in past years. The results will help you decide how hot, cold, wet, or windy it might be!

Date:

Astronomy

May. 01, 2013 Rise Set
Actual Time 6:29 AM CDT 8:25 PM CDT
Civil Twilight 6:00 AM CDT 8:55 PM CDT
Nautical Twilight 5:24 AM CDT 9:31 PM CDT
Astronomical Twilight 4:45 AM CDT 10:10 PM CDT
Moon 1:36 AM CDT (5/1) 12:09 PM CDT (5/1)
Length of Visible Light 14h 54m
Length of Day
13h 55m
Waning Gibbous, 59% of the Moon is Illuminated
May 1
Waning Gibbous
May 2
Last Quarter
May 9
New
May 17
First Quarter
May 24
Full

Hourly Weather History & Observations

Time (CDT) Temp. Windchill Dew Point Humidity Pressure Visibility Wind Dir Wind Speed Gust Speed Precip Events Conditions
12:15 AM 65.3 °F - 38.3 °F 37% 29.86 in 10.0 mi NE 17.3 mph 23.0 mph N/A   Overcast
12:35 AM 64.0 °F - 33.4 °F 32% 29.87 in 10.0 mi NNE 10.4 mph 24.2 mph N/A   Overcast
12:55 AM 62.8 °F - 31.5 °F 31% 29.88 in 10.0 mi North 12.7 mph 21.9 mph N/A   Overcast
1:15 AM 59.0 °F - 34.0 °F 39% 29.91 in 10.0 mi North 16.1 mph 25.3 mph N/A   Overcast
1:35 AM 57.4 °F - 36.5 °F 46% 29.91 in 10.0 mi North 24.2 mph 32.2 mph N/A   Overcast
1:55 AM 56.1 °F - 38.3 °F 51% 29.92 in 10.0 mi NNE 23.0 mph 32.2 mph N/A   Overcast
2:15 AM 55.0 °F - 37.6 °F 52% 29.92 in 10.0 mi NNE 21.9 mph 40.3 mph N/A   Overcast
2:35 AM 54.5 °F - 37.9 °F 54% 29.94 in 10.0 mi NNE 15.0 mph 24.2 mph N/A   Overcast
2:55 AM 53.4 °F - 39.6 °F 59% 29.97 in 10.0 mi North 15.0 mph 23.0 mph N/A   Overcast
3:15 AM 51.6 °F - 39.4 °F 63% 29.97 in 10.0 mi NNE 21.9 mph 31.1 mph N/A   Overcast
3:35 AM 51.1 °F - 39.4 °F 64% 29.97 in 10.0 mi NNE 20.7 mph 35.7 mph N/A   Overcast
4:15 AM 50.5 °F - 39.2 °F 65% 30.00 in 10.0 mi NNE 21.9 mph 33.4 mph N/A   Overcast
4:35 AM 50.4 °F - 38.7 °F 64% 30.01 in 10.0 mi NNE 20.7 mph 33.4 mph N/A   Overcast
4:55 AM 49.6 °F - 39.2 °F 67% 30.01 in 10.0 mi NNE 25.3 mph 32.2 mph N/A   Overcast
5:15 AM 49.3 °F - 39.4 °F 69% 30.01 in 10.0 mi NNE 26.5 mph 36.8 mph N/A   Overcast
5:35 AM 49.1 °F - 39.6 °F 70% 30.01 in 10.0 mi NE 20.7 mph 33.4 mph N/A   Overcast
5:55 AM 49.1 °F - 39.6 °F 70% 30.03 in 10.0 mi NE 15.0 mph 31.1 mph N/A   Overcast
6:15 AM 48.9 °F - 39.4 °F 70% 30.03 in 10.0 mi NNE 21.9 mph 36.8 mph N/A   Overcast
6:35 AM 48.7 °F - 39.2 °F 70% 30.05 in 10.0 mi NE 20.7 mph 29.9 mph N/A   Overcast
7:15 AM 48.2 °F - 39.2 °F 71% 30.09 in 10.0 mi NNE 25.3 mph 31.1 mph N/A   Overcast
7:35 AM 46.6 °F - 41.0 °F 81% 30.09 in 3.0 mi NNE 21.9 mph 28.8 mph N/A Rain Light Rain
7:55 AM 45.5 °F 38.3 °F 41.9 °F 87% 30.11 in 3.0 mi North 17.3 mph 25.3 mph 0.02 in   Unknown
8:15 AM 44.6 °F 35.9 °F 41.0 °F 87% 30.12 in 3.0 mi NNE 23.0 mph 28.8 mph N/A Rain Light Rain
8:35 AM 44.1 °F 36.2 °F 40.6 °F 88% 30.14 in 2.0 mi NNE 18.4 mph 31.1 mph 0.02 in Rain Light Rain
8:55 AM 43.9 °F 35.0 °F 40.6 °F 88% 30.14 in 3.0 mi NNE 23.0 mph 32.2 mph 0.03 in Rain Light Rain
9:15 AM 42.8 °F 33.1 °F 39.4 °F 88% 30.14 in 2.5 mi NNE 25.3 mph 36.8 mph 0.01 in Rain , Thunderstorm Light Thunderstorms and Rain
9:35 AM 41.4 °F 31.2 °F 37.6 °F 86% 30.15 in 4.0 mi NNE 25.3 mph 35.7 mph 0.01 in Rain Light Rain
9:55 AM 41.0 °F 30.9 °F 37.4 °F 87% 30.16 in 7.0 mi NNE 24.2 mph 33.4 mph 0.01 in   Drizzle
10:15 AM 41.0 °F 31.1 °F 37.4 °F 87% 30.15 in 7.0 mi NNE 23.0 mph 31.1 mph N/A Rain Light Rain
10:35 AM 41.0 °F 31.4 °F 37.4 °F 87% 30.18 in 4.0 mi NNE 21.9 mph 33.4 mph N/A Rain Light Rain
10:55 AM 41.4 °F 31.6 °F 37.6 °F 86% 30.18 in 4.0 mi NNE 23.0 mph 32.2 mph N/A Rain Light Rain
11:15 AM 41.2 °F 30.5 °F 37.4 °F 86% 30.18 in 4.0 mi NE 27.6 mph 35.7 mph N/A Rain Light Rain
11:35 AM 41.0 °F 31.4 °F 37.4 °F 87% 30.19 in 2.5 mi NNE 21.9 mph 29.9 mph 0.01 in Rain Light Rain
11:55 AM 41.0 °F 31.6 °F 37.4 °F 87% 30.23 in 4.0 mi North 20.7 mph 26.5 mph 0.01 in Rain Light Rain
12:15 PM 40.5 °F 30.4 °F 37.0 °F 88% 30.22 in 2.0 mi North 23.0 mph 28.8 mph N/A   Unknown
12:35 PM 39.7 °F 30.3 °F 36.1 °F 87% 30.22 in 3.0 mi NNE 19.6 mph 34.5 mph 0.01 in Rain Light Rain
12:55 PM 39.6 °F 29.0 °F 36.0 °F 87% 30.22 in 2.0 mi NNE 24.2 mph 33.4 mph 0.02 in   Unknown
1:15 PM 39.4 °F 30.1 °F 36.1 °F 88% 30.24 in 2.0 mi NNE 18.4 mph 31.1 mph 0.01 in Rain Light Rain
1:35 PM 39.4 °F 29.2 °F 36.1 °F 88% 30.23 in 3.0 mi NNE 21.9 mph 28.8 mph 0.02 in Rain Light Rain
2:15 PM 38.8 °F 29.4 °F 35.4 °F 88% 30.25 in 3.0 mi NNE 18.4 mph 32.2 mph 0.01 in Rain Light Rain
2:35 PM 38.3 °F 28.4 °F 35.1 °F 88% 30.26 in 1.5 mi North 19.6 mph 28.8 mph 0.04 in Rain Light Rain
2:55 PM 38.3 °F 29.3 °F 35.1 °F 88% 30.27 in 2.5 mi North 16.1 mph 27.6 mph 0.07 in   Unknown
3:15 PM 37.8 °F 26.8 °F 34.2 °F 87% 30.27 in 3.0 mi NNE 23.0 mph 33.4 mph 0.01 in Rain Light Rain
3:35 PM 37.9 °F 27.6 °F 34.3 °F 87% 30.28 in 2.5 mi NNE 20.7 mph 34.5 mph 0.03 in Rain , Thunderstorm Light Thunderstorms and Rain
4:15 PM 38.3 °F 28.7 °F 34.7 °F 87% 30.28 in 2.5 mi North 18.4 mph 35.7 mph N/A Rain , Thunderstorm Light Thunderstorms and Rain
4:35 PM 38.3 °F 29.0 °F 34.7 °F 87% 30.29 in 2.0 mi NNE 17.3 mph 27.6 mph 0.02 in   Unknown
4:55 PM 38.1 °F 28.4 °F 34.7 °F 87% 30.29 in 2.0 mi North 18.4 mph 27.6 mph 0.04 in Rain , Thunderstorm Light Thunderstorms and Rain
5:15 PM 37.8 °F 26.3 °F 34.3 °F 87% 30.31 in 1.5 mi North 25.3 mph 33.4 mph 0.03 in Snow , Thunderstorm Light Thunderstorms and Snow
5:35 PM 37.9 °F 27.6 °F 34.7 °F 88% 30.31 in 2.0 mi North 20.7 mph 28.8 mph 0.06 in Snow , Thunderstorm Light Thunderstorms and Snow
5:55 PM 37.6 °F 28.1 °F 34.2 °F 87% 30.33 in 1.8 mi North 17.3 mph 32.2 mph 0.11 in   Overcast
6:15 PM 37.4 °F 27.8 °F 33.8 °F 87% 30.34 in 1.2 mi North 17.3 mph 34.5 mph 0.06 in Snow , Thunderstorm Light Thunderstorms and Snow
6:35 PM 36.9 °F 27.1 °F 33.4 °F 87% 30.34 in 1.5 mi North 17.3 mph 25.3 mph 0.12 in Snow , Thunderstorm Light Thunderstorms and Snow
6:55 PM 36.5 °F 25.4 °F 32.9 °F 87% 30.33 in 1.8 mi North 21.9 mph 32.2 mph 0.18 in Thunderstorm Overcast
7:15 PM 36.7 °F 25.4 °F 33.1 °F 87% 30.34 in 5.0 mi North 23.0 mph 33.4 mph 0.01 in Rain Light Rain
7:35 PM 36.7 °F 25.1 °F 33.1 °F 87% 30.34 in 2.5 mi North 24.2 mph 31.1 mph 0.02 in Rain Light Rain
7:55 PM 36.5 °F 26.7 °F 32.9 °F 87% 30.34 in 2.0 mi NNE 17.3 mph 27.6 mph 0.06 in Snow Light Snow
8:35 PM 35.6 °F 26.2 °F 32.4 °F 88% 30.35 in 5.0 mi NNE 15.0 mph 25.3 mph 0.03 in Snow , Thunderstorm Light Thunderstorms and Snow
8:55 PM 35.4 °F 25.6 °F 32.4 °F 89% 30.36 in 3.0 mi NNE 16.1 mph 23.0 mph 0.07 in Snow Light Snow
9:35 PM 35.2 °F 25.0 °F 32.0 °F 88% 30.37 in 5.0 mi NNE 17.3 mph 24.2 mph 0.03 in Snow Light Snow
9:55 PM 35.2 °F 24.4 °F 32.0 °F 88% 30.39 in 5.0 mi NNE 19.6 mph 25.3 mph 0.04 in Snow , Thunderstorm Light Thunderstorms and Snow
10:15 PM 35.4 °F 25.3 °F 32.0 °F 87% 30.41 in 7.0 mi North 17.3 mph 26.5 mph N/A Snow , Thunderstorm Light Thunderstorms and Snow
10:35 PM 35.2 °F 24.7 °F 32.0 °F 88% 30.41 in 7.0 mi NNE 18.4 mph 26.5 mph 0.01 in Snow Light Snow
10:55 PM 34.9 °F 26.6 °F 32.0 °F 89% 30.43 in 4.0 mi North 11.5 mph 17.3 mph 0.02 in Snow Light Snow
11:15 PM 34.7 °F 26.4 °F 32.2 °F 91% 30.44 in 3.0 mi North 11.5 mph - 0.01 in Snow Light Snow
11:35 PM 34.9 °F 24.9 °F 32.4 °F 91% 30.42 in 5.0 mi North 16.1 mph 20.7 mph 0.01 in   Overcast
11:55 PM 35.1 °F 25.9 °F 32.5 °F 91% 30.42 in 7.0 mi North 13.8 mph 20.7 mph 0.01 in   Light Drizzle